Location: Ajisawe
(8.4333°N, 4.3833°E)
Time: 00:04:03
(UTC+00:00)

A-11 Canister half - Pass Details

Date: 28 April 2021
Orbit: 1514 x 1685 km, 47.2° (Epoch: 15 May)

Event Time Altitude Azimuth Distance (km) Brightness Sun altitude
Exits shadow 04:02:22 21° 287° (WNW) 3,124 10.1 -21.1°
Maximum altitude 04:08:32 41° 232° (SW) 2,284 9.4 -19.7°
Drops below altitude 10° 04:17:50 10° 165° (SSE) 3,943 11.1 -17.5°
Sets 04:21:17 0° 158° (SSE) 4,926 11.7 -16.7°
